ACV0001 LIMC-OMDB

Flight info

Callsign ACV0001
Flight time N/A
Altitude 33000
Route ROBAS DCT LOGDI DCT EKDIR DCT AMTEL DCT SOR DCT POLIT DCT BELIX UM728 SALUN N705 MMA/N0486F350 P751 DASUM Y234 FYM M872 BDB Y214 RAPMA DCT KUVSO DCT KATIT DCT PEKEM M628 RIGIL G783 ASPED Q308 KIPOK/N0500F340 Q568 IMPED
Aircraft MD11/H-SDE1E2E3FGHIJ2J3J4J5M1RWXY/LB1D1

Departure

Time N/A
Airport Milan Malpensa International Airport (LIMC)

Arrival

Time 2026-04-30 21:21
Airport Dubai International Airport (OMDB)
Time Latitude Longitude Altitude Speed Heading
2026-04-30 20:06 23.45277 47.64361 32950 ft 548 kts 99°
2026-04-30 20:06 23.44475 47.72612 32947 ft 548 kts 99°
2026-04-30 20:07 23.43668 47.80872 32944 ft 549 kts 99°
2026-04-30 20:08 23.42447 47.93273 32941 ft 549 kts 99°
2026-04-30 20:08 23.41626 48.01544 32939 ft 550 kts 99°
2026-04-30 20:09 23.40802 48.09813 32936 ft 550 kts 99°
2026-04-30 20:09 23.39555 48.22231 32934 ft 550 kts 99°
2026-04-30 20:10 23.38320 48.34635 32932 ft 550 kts 98°
2026-04-30 20:11 23.37684 48.47073 32931 ft 551 kts 95°
2026-04-30 20:11 23.37401 48.55412 32929 ft 551 kts 95°
2026-04-30 20:12 23.36920 48.67904 32931 ft 550 kts 95°
2026-04-30 20:13 23.36575 48.76222 32924 ft 550 kts 95°
2026-04-30 20:13 23.36227 48.84533 32927 ft 550 kts 95°
2026-04-30 20:14 23.35876 48.92846 32924 ft 550 kts 95°
2026-04-30 20:14 23.35516 49.01148 32918 ft 549 kts 96°
2026-04-30 20:15 23.34693 49.09375 32917 ft 546 kts 102°
2026-04-30 20:15 23.33487 49.17523 32916 ft 545 kts 103°
2026-04-30 20:16 23.32264 49.25668 32918 ft 545 kts 102°
2026-04-30 20:16 23.31087 49.33823 32912 ft 546 kts 102°
2026-04-30 20:17 23.29928 49.41976 32911 ft 545 kts 102°
2026-04-30 20:17 23.28801 49.49877 32909 ft 545 kts 102°
2026-04-30 20:18 23.27631 49.58025 32907 ft 545 kts 102°
2026-04-30 20:18 23.26457 49.66166 32908 ft 545 kts 102°
2026-04-30 20:19 23.25348 49.73823 32906 ft 545 kts 102°
2026-04-30 20:19 23.24167 49.81955 32907 ft 544 kts 102°
2026-04-30 20:20 23.22982 49.90083 32906 ft 544 kts 102°
2026-04-30 20:20 23.21788 49.98147 32901 ft 544 kts 102°
2026-04-30 20:21 23.20583 50.06251 32900 ft 543 kts 102°
2026-04-30 20:21 23.19384 50.14362 32904 ft 543 kts 102°
2026-04-30 20:22 23.18187 50.22459 32903 ft 543 kts 102°
2026-04-30 20:22 23.16985 50.30554 32885 ft 543 kts 102°
2026-04-30 20:23 23.15779 50.38645 32888 ft 542 kts 102°
2026-04-30 20:23 23.14569 50.46734 32888 ft 542 kts 102°
2026-04-30 20:24 23.13355 50.54823 32882 ft 542 kts 102°
2026-04-30 20:24 23.12343 50.61541 32896 ft 542 kts 102°
2026-04-30 20:25 23.10509 50.73662 32883 ft 542 kts 102°
2026-04-30 20:26 23.08659 50.85763 32889 ft 541 kts 102°
2026-04-30 20:26 23.06790 50.97856 32883 ft 541 kts 102°
2026-04-30 20:27 23.04311 51.13972 32872 ft 541 kts 102°
2026-04-30 20:28 23.01820 51.30055 32879 ft 540 kts 102°
2026-04-30 20:30 22.98697 51.50062 32874 ft 539 kts 102°
2026-04-30 20:31 22.94906 51.74067 32872 ft 537 kts 102°
2026-04-30 20:32 22.91712 51.94006 32869 ft 536 kts 102°
2026-04-30 20:33 22.89800 52.05957 32866 ft 536 kts 102°
2026-04-30 20:34 22.87880 52.17889 32870 ft 535 kts 102°
2026-04-30 20:35 22.85952 52.29812 32870 ft 535 kts 102°
2026-04-30 20:35 22.84017 52.41721 32857 ft 535 kts 102°
2026-04-30 20:36 22.82733 52.49654 32860 ft 535 kts 101°
2026-04-30 20:37 22.82006 52.61735 32853 ft 537 kts 92°
2026-04-30 20:37 22.81909 52.69824 32864 ft 536 kts 92°
2026-04-30 20:38 22.81755 52.77906 32854 ft 536 kts 92°
2026-04-30 20:38 22.81550 52.85933 32857 ft 536 kts 93°
2026-04-30 20:39 22.81217 52.98048 32857 ft 536 kts 93°
2026-04-30 20:40 22.80882 53.10166 32849 ft 536 kts 93°
2026-04-30 20:40 22.80654 53.18239 32855 ft 536 kts 93°
2026-04-30 20:41 22.80305 53.30341 32851 ft 536 kts 93°
2026-04-30 20:41 22.80067 53.38408 32845 ft 536 kts 93°
2026-04-30 20:42 22.79812 53.46479 32847 ft 535 kts 93°
2026-04-30 20:43 22.79425 53.58570 32844 ft 535 kts 93°
2026-04-30 20:43 22.79172 53.66636 32845 ft 535 kts 93°
2026-04-30 20:44 22.78788 53.78723 32846 ft 535 kts 93°
2026-04-30 20:45 22.78260 53.94830 32840 ft 535 kts 93°
2026-04-30 20:45 22.78640 54.02864 32842 ft 536 kts 81°
2026-04-30 20:46 22.81990 54.18593 32839 ft 536 kts 76°
2026-04-30 20:47 22.84436 54.30406 32837 ft 535 kts 77°
2026-04-30 20:48 22.86779 54.42190 32837 ft 535 kts 78°
2026-04-30 20:48 22.88348 54.50086 32836 ft 535 kts 78°
2026-04-30 20:49 22.89916 54.57973 32834 ft 535 kts 78°
2026-04-30 20:50 22.92257 54.69792 32831 ft 534 kts 78°
2026-04-30 20:50 22.93810 54.77663 32829 ft 533 kts 78°
2026-04-30 20:51 22.95357 54.85524 32821 ft 533 kts 78°
2026-04-30 20:51 22.97646 54.97311 32821 ft 532 kts 78°
2026-04-30 20:52 22.99174 55.05166 32823 ft 531 kts 78°
2026-04-30 20:52 23.01183 55.12864 32825 ft 530 kts 66°
2026-04-30 20:53 23.02828 55.16433 32828 ft 528 kts 57°
2026-04-30 20:53 23.07493 55.22510 32832 ft 523 kts 38°
2026-04-30 20:54 23.13469 55.26878 32835 ft 516 kts 22°
2026-04-30 20:54 23.16767 55.28364 32838 ft 512 kts 15°
2026-04-30 20:55 23.27051 55.31330 32837 ft 510 kts
2026-04-30 20:55 23.33939 55.33221 32847 ft 511 kts 11°
2026-04-30 20:56 23.44243 55.36249 32843 ft 512 kts 11°
2026-04-30 20:57 23.54551 55.39324 32846 ft 512 kts 11°
2026-04-30 20:57 23.61437 55.41365 32855 ft 513 kts 11°
2026-04-30 20:58 23.71732 55.44413 32854 ft 514 kts 11°
2026-04-30 20:58 23.78634 55.46460 32855 ft 514 kts 11°
2026-04-30 20:59 23.88992 55.49542 32858 ft 514 kts 11°
2026-04-30 21:00 23.95847 55.51592 32122 ft 509 kts 11°
2026-04-30 21:00 24.02514 55.54274 30953 ft 518 kts 26°
2026-04-30 21:01 24.08228 55.59191 29721 ft 529 kts 42°
2026-04-30 21:01 24.10829 55.62051 28996 ft 529 kts 43°
2026-04-30 21:01 24.15973 55.67683 27680 ft 516 kts 41°
2026-04-30 21:02 24.18574 55.70390 27054 ft 512 kts 40°
2026-04-30 21:02 24.21169 55.73023 26436 ft 506 kts 40°
2026-04-30 21:02 24.23754 55.75609 25808 ft 501 kts 39°
2026-04-30 21:02 24.26321 55.78163 25207 ft 495 kts 39°
2026-04-30 21:03 24.28856 55.80684 24599 ft 490 kts 39°
2026-04-30 21:03 24.31365 55.83183 23999 ft 485 kts 40°
2026-04-30 21:03 24.33845 55.85659 23411 ft 480 kts 40°
2026-04-30 21:03 24.36300 55.88114 22743 ft 474 kts 40°
2026-04-30 21:04 24.38725 55.90540 22111 ft 470 kts 40°
2026-04-30 21:04 24.41125 55.92939 21476 ft 465 kts 40°
2026-04-30 21:04 24.45855 55.97661 20262 ft 454 kts 40°
2026-04-30 21:05 24.48178 55.99979 19680 ft 450 kts 40°
2026-04-30 21:05 24.50483 56.02279 19079 ft 445 kts 40°
2026-04-30 21:05 24.52760 56.04553 18501 ft 440 kts 40°
2026-04-30 21:05 24.55005 56.06808 17884 ft 435 kts 40°
2026-04-30 21:06 24.57223 56.09044 17240 ft 431 kts 41°
2026-04-30 21:06 24.59487 56.11162 16675 ft 424 kts 33°
2026-04-30 21:06 24.62081 56.12618 16085 ft 415 kts 15°
2026-04-30 21:06 24.64860 56.13377 15533 ft 409 kts
2026-04-30 21:07 24.67657 56.13843 14982 ft 405 kts
2026-04-30 21:07 24.70442 56.14238 14441 ft 402 kts
2026-04-30 21:07 24.73192 56.14644 13883 ft 398 kts
2026-04-30 21:07 24.75931 56.15083 13337 ft 397 kts
2026-04-30 21:08 24.78655 56.15374 12804 ft 389 kts 355°
2026-04-30 21:08 24.81264 56.14863 12638 ft 372 kts 339°
2026-04-30 21:08 24.83598 56.13861 12524 ft 350 kts 332°
2026-04-30 21:08 24.85742 56.12750 12412 ft 330 kts 329°
2026-04-30 21:09 24.87551 56.11256 12395 ft 335 kts 308°
2026-04-30 21:09 24.88794 56.09000 12323 ft 356 kts 290°
2026-04-30 21:09 24.89614 56.06418 11783 ft 357 kts 285°
2026-04-30 21:09 24.90374 56.03809 11321 ft 357 kts 287°
2026-04-30 21:10 24.91223 56.01263 11084 ft 347 kts 290°
2026-04-30 21:10 24.92131 55.98882 10966 ft 329 kts 291°
2026-04-30 21:10 24.93063 55.96645 10846 ft 312 kts 293°
2026-04-30 21:10 24.93985 55.94541 10725 ft 297 kts 294°
2026-04-30 21:11 24.94882 55.92554 10609 ft 283 kts 294°
2026-04-30 21:11 24.95464 55.91281 10509 ft 279 kts 294°
2026-04-30 21:11 24.96624 55.88759 10046 ft 277 kts 294°
2026-04-30 21:11 24.97497 55.86872 9637 ft 276 kts 295°
2026-04-30 21:12 24.98370 55.84992 9174 ft 276 kts 295°
2026-04-30 21:12 24.99272 55.83129 8718 ft 276 kts 297°
2026-04-30 21:12 25.00248 55.81303 8267 ft 276 kts 299°
2026-04-30 21:12 25.01243 55.79496 7837 ft 276 kts 300°
2026-04-30 21:13 25.02243 55.77692 7380 ft 276 kts 300°
2026-04-30 21:13 25.02920 55.76472 7089 ft 274 kts 300°
2026-04-30 21:13 25.03892 55.74731 6689 ft 263 kts 300°
2026-04-30 21:13 25.04893 55.73047 6303 ft 262 kts 303°
2026-04-30 21:14 25.05920 55.71393 5891 ft 261 kts 302°
2026-04-30 21:14 25.06900 55.69707 5489 ft 261 kts 301°
2026-04-30 21:14 25.07848 55.68005 5113 ft 260 kts 301°
2026-04-30 21:14 25.08790 55.66303 4750 ft 260 kts 301°
2026-04-30 21:15 25.09729 55.64602 4379 ft 259 kts 301°
2026-04-30 21:15 25.10665 55.62907 4014 ft 258 kts 301°
2026-04-30 21:15 25.11566 55.61277 3649 ft 233 kts 302°
2026-04-30 21:15 25.12356 55.59845 3354 ft 207 kts 302°
2026-04-30 21:16 25.13085 55.58526 3078 ft 199 kts 302°
2026-04-30 21:16 25.13780 55.57267 2820 ft 190 kts 302°
2026-04-30 21:16 25.14471 55.56016 2655 ft 187 kts 303°
2026-04-30 21:16 25.15145 55.54795 2560 ft 181 kts 303°
2026-04-30 21:17 25.15761 55.53678 2281 ft 166 kts 303°
2026-04-30 21:17 25.16353 55.52608 2065 ft 161 kts 303°
2026-04-30 21:17 25.16933 55.51558 2016 ft 160 kts 302°
2026-04-30 21:17 25.17513 55.50510 2010 ft 160 kts 302°
2026-04-30 21:18 25.18091 55.49463 2011 ft 160 kts 303°
2026-04-30 21:18 25.18672 55.48410 1852 ft 160 kts 303°
2026-04-30 21:18 25.19249 55.47365 1656 ft 159 kts 302°
2026-04-30 21:18 25.19816 55.46340 1422 ft 158 kts 302°
2026-04-30 21:19 25.20399 55.45291 1239 ft 162 kts 301°
2026-04-30 21:19 25.20982 55.44215 1050 ft 163 kts 301°
2026-04-30 21:19 25.21560 55.43142 850 ft 164 kts 301°
2026-04-30 21:19 25.22166 55.42064 636 ft 167 kts 301°
2026-04-30 21:20 25.22778 55.40955 427 ft 171 kts 301°
2026-04-30 21:20 25.23397 55.39828 206 ft 171 kts 302°
2026-04-30 21:20 25.23978 55.38789 62 ft 138 kts 301°
2026-04-30 21:20 25.24394 55.38042 52 ft 93 kts 301°
2026-04-30 21:21 25.24673 55.37544 43 ft 59 kts 301°
2026-04-30 21:21 25.24780 55.37250 40 ft 24 kts 279°
2026-04-30 21:21 25.24808 55.36904 36 ft 14 kts 266°
2026-04-30 21:22 25.24776 55.36829 36 ft 10 kts 239°
2026-04-30 21:22 25.24695 55.36651 34 ft 0 kts 248°